Location: Croydon
(51.3762°N, 0.0982°W)
Time: 01:54:48
(UTC+00:00)

Envisat - Pass Details

Date: 26 February 2019
Orbit: 764 x 766 km, 98.2° (Epoch: 25 March)

Event Time Altitude Azimuth Distance (km) Brightness Sun altitude
Rises 18:29:35 0° 166° (SSE) 3,223 6.1 -9.3°
Reaches altitude 10° 18:31:53 10° 167° (SSE) 2,300 5.4 -9.6°
Maximum altitude 18:36:58 83° 256° (WSW) 779 3.1 -10.4°
Drops below altitude 10° 18:42:05 10° 344° (NNW) 2,317 5.7 -11.2°
Sets 18:44:25 0° 346° (NNW) 3,247 6.5 -11.6°
